RYR71BB LOWW-LFOB

Flight info

Callsign RYR71BB
Flight time 1h 34m
Altitude 34000
Route MEDIX DCT RENKA/N0453F360 L610 MAMOR DCT ASPAT DCT VIBOM DCT BETEX DCT IDOSA DCT TOLVU/N0451F370 DCT RAPOR DCT VEDUS
Aircraft A320/M-SDE3FGHIRWY/LB1

Departure

Time 2026-04-21 04:57
Airport Vienna International Airport (LOWW)

Arrival

Time 2026-04-21 06:31
Airport Beauvais-Tillé airport (LFOB)
Time Latitude Longitude Altitude Speed Heading
2026-04-21 04:22 48.11938 16.55802 623 ft 0 kts 296°
2026-04-21 04:48 48.11937 16.55802 609 ft 1 kts 296°
2026-04-21 04:49 48.11931 16.55821 624 ft 3 kts 294°
2026-04-21 04:49 48.11924 16.55849 612 ft 3 kts 288°
2026-04-21 04:49 48.11918 16.55878 617 ft 3 kts 277°
2026-04-21 04:49 48.11918 16.55906 613 ft 3 kts 248°
2026-04-21 04:50 48.11925 16.55923 612 ft 1 kts 207°
2026-04-21 04:50 48.11926 16.55924 609 ft 0 kts 206°
2026-04-21 04:52 48.11923 16.55922 615 ft 2 kts 206°
2026-04-21 04:52 48.11905 16.55909 619 ft 4 kts 206°
2026-04-21 04:52 48.11871 16.55884 618 ft 7 kts 206°
2026-04-21 04:52 48.11821 16.55847 609 ft 9 kts 206°
2026-04-21 04:53 48.11754 16.55798 618 ft 12 kts 206°
2026-04-21 04:53 48.11681 16.55831 619 ft 14 kts 121°
2026-04-21 04:53 48.11635 16.55970 618 ft 16 kts 116°
2026-04-21 04:53 48.11578 16.56139 616 ft 19 kts 117°
2026-04-21 04:54 48.11517 16.56333 609 ft 22 kts 115°
2026-04-21 04:54 48.11447 16.56551 623 ft 24 kts 116°
2026-04-21 04:54 48.11368 16.56790 617 ft 27 kts 116°
2026-04-21 04:54 48.11282 16.57051 612 ft 29 kts 116°
2026-04-21 04:55 48.11217 16.57245 609 ft 9 kts 127°
2026-04-21 04:55 48.11171 16.57227 620 ft 8 kts 206°
2026-04-21 04:55 48.11109 16.57184 609 ft 11 kts 205°
2026-04-21 04:55 48.11043 16.57115 616 ft 12 kts 262°
2026-04-21 04:56 48.11096 16.56924 613 ft 44 kts 295°
2026-04-21 04:56 48.11347 16.56199 613 ft 109 kts 297°
2026-04-21 04:56 48.11761 16.54953 613 ft 157 kts 296°
2026-04-21 04:56 48.12280 16.53406 1014 ft 168 kts 291°
2026-04-21 04:57 48.12309 16.51650 1649 ft 174 kts 259°
2026-04-21 04:57 48.12028 16.49887 2201 ft 175 kts 261°
2026-04-21 04:57 48.11770 16.48000 2435 ft 196 kts 262°
2026-04-21 04:57 48.11443 16.45901 2687 ft 219 kts 258°
2026-04-21 04:58 48.11025 16.43591 3056 ft 241 kts 258°
2026-04-21 04:58 48.10569 16.41124 3822 ft 250 kts 258°
2026-04-21 04:58 48.10104 16.38598 4751 ft 253 kts 258°
2026-04-21 04:58 48.09837 16.36017 5675 ft 251 kts 273°
2026-04-21 04:59 48.09857 16.33409 6622 ft 251 kts 275°
2026-04-21 04:59 48.09896 16.30800 7549 ft 252 kts 275°
2026-04-21 04:59 48.09943 16.28144 8431 ft 254 kts 274°
2026-04-21 04:59 48.09994 16.25476 9250 ft 258 kts 274°
2026-04-21 05:00 48.10044 16.22773 10035 ft 262 kts 274°
2026-04-21 05:00 48.10257 16.20058 10761 ft 266 kts 285°
2026-04-21 05:00 48.11594 16.14422 11277 ft 309 kts 292°
2026-04-21 05:01 48.12357 16.11371 11836 ft 317 kts 292°
2026-04-21 05:01 48.13132 16.08259 12496 ft 321 kts 292°
2026-04-21 05:01 48.13911 16.05101 13164 ft 325 kts 292°
2026-04-21 05:01 48.14695 16.01907 13833 ft 328 kts 291°
2026-04-21 05:02 48.15484 15.98679 14482 ft 332 kts 291°
2026-04-21 05:02 48.16278 15.95421 15125 ft 335 kts 291°
2026-04-21 05:02 48.17079 15.92132 15742 ft 337 kts 291°
2026-04-21 05:02 48.17886 15.88819 16348 ft 340 kts 291°
2026-04-21 05:03 48.18700 15.85475 16942 ft 343 kts 291°
2026-04-21 05:03 48.19519 15.82103 17537 ft 346 kts 290°
2026-04-21 05:03 48.20340 15.78704 18115 ft 348 kts 290°
2026-04-21 05:03 48.21167 15.75273 18693 ft 351 kts 290°
2026-04-21 05:04 48.22000 15.71812 19282 ft 355 kts 290°
2026-04-21 05:04 48.22843 15.68316 19854 ft 358 kts 291°
2026-04-21 05:04 48.23692 15.64797 20441 ft 361 kts 291°
2026-04-21 05:04 48.24547 15.61242 21001 ft 363 kts 291°
2026-04-21 05:05 48.25408 15.57661 21529 ft 366 kts 291°
2026-04-21 05:05 48.26277 15.54046 22044 ft 369 kts 291°
2026-04-21 05:05 48.27148 15.50405 22538 ft 372 kts 291°
2026-04-21 05:05 48.28022 15.46732 23036 ft 375 kts 291°
2026-04-21 05:06 48.28899 15.43033 23510 ft 378 kts 291°
2026-04-21 05:06 48.29690 15.39199 23956 ft 382 kts 286°
2026-04-21 05:06 48.30321 15.35305 24398 ft 385 kts 286°
2026-04-21 05:06 48.30952 15.31393 24841 ft 387 kts 285°
2026-04-21 05:07 48.31578 15.27504 25269 ft 389 kts 285°
2026-04-21 05:07 48.32221 15.23496 25689 ft 391 kts 285°
2026-04-21 05:07 48.32857 15.19518 26117 ft 392 kts 285°
2026-04-21 05:07 48.33493 15.15527 26514 ft 394 kts 285°
2026-04-21 05:08 48.34131 15.11513 26901 ft 396 kts 285°
2026-04-21 05:08 48.34771 15.07483 27299 ft 397 kts 285°
2026-04-21 05:08 48.35413 15.03435 27689 ft 399 kts 285°
2026-04-21 05:08 48.36057 14.99374 28074 ft 400 kts 285°
2026-04-21 05:09 48.36702 14.95294 28454 ft 401 kts 285°
2026-04-21 05:09 48.37345 14.91202 28816 ft 403 kts 285°
2026-04-21 05:09 48.37988 14.87100 29189 ft 404 kts 285°
2026-04-21 05:09 48.38632 14.82981 29550 ft 405 kts 284°
2026-04-21 05:10 48.39275 14.78855 29910 ft 405 kts 284°
2026-04-21 05:10 48.39916 14.74720 30266 ft 406 kts 284°
2026-04-21 05:10 48.40568 14.70519 30584 ft 408 kts 284°
2026-04-21 05:10 48.41213 14.66361 30984 ft 407 kts 284°
2026-04-21 05:11 48.41672 14.63397 31294 ft 406 kts 284°
2026-04-21 05:11 48.42310 14.59256 31695 ft 406 kts 284°
2026-04-21 05:11 48.42945 14.55127 32101 ft 405 kts 284°
2026-04-21 05:11 48.43578 14.51001 32496 ft 405 kts 284°
2026-04-21 05:12 48.43996 14.48260 32738 ft 405 kts 284°
2026-04-21 05:12 48.44623 14.44147 33125 ft 404 kts 284°
2026-04-21 05:12 48.45253 14.40012 33496 ft 404 kts 284°
2026-04-21 05:12 48.45889 14.35843 33869 ft 403 kts 284°
2026-04-21 05:13 48.46517 14.31722 34262 ft 403 kts 284°
2026-04-21 05:13 48.47141 14.27611 34633 ft 402 kts 284°
2026-04-21 05:13 48.47758 14.23505 34952 ft 403 kts 284°
2026-04-21 05:13 48.48375 14.19372 35252 ft 403 kts 284°
2026-04-21 05:14 48.48991 14.15243 35551 ft 404 kts 284°
2026-04-21 05:14 48.49608 14.11114 35844 ft 404 kts 284°
2026-04-21 05:14 48.50226 14.06982 36066 ft 405 kts 284°
2026-04-21 05:14 48.50849 14.02818 36111 ft 409 kts 284°
2026-04-21 05:15 48.52096 13.94421 36122 ft 411 kts 284°
2026-04-21 05:15 48.53335 13.86004 36117 ft 411 kts 284°
2026-04-21 05:16 48.54566 13.77582 36116 ft 411 kts 284°
2026-04-21 05:16 48.55794 13.69147 36123 ft 412 kts 283°
2026-04-21 05:17 48.57018 13.60701 36120 ft 412 kts 283°
2026-04-21 05:17 48.58235 13.52252 36119 ft 412 kts 284°
2026-04-21 05:18 48.60047 13.44070 36121 ft 411 kts 290°
2026-04-21 05:18 48.62009 13.35949 36112 ft 412 kts 290°
2026-04-21 05:19 48.63969 13.27802 36113 ft 413 kts 290°
2026-04-21 05:19 48.65920 13.19625 36120 ft 413 kts 290°
2026-04-21 05:20 48.67875 13.11380 36116 ft 414 kts 290°
2026-04-21 05:20 48.69815 13.03179 36116 ft 414 kts 290°
2026-04-21 05:21 48.71759 12.94958 36122 ft 415 kts 290°
2026-04-21 05:21 48.73234 12.86513 36135 ft 415 kts 284°
2026-04-21 05:22 48.74496 12.77969 36144 ft 416 kts 283°
2026-04-21 05:22 48.75730 12.69414 36149 ft 415 kts 283°
2026-04-21 05:23 48.76967 12.60864 36150 ft 415 kts 283°
2026-04-21 05:23 48.78211 12.52313 36151 ft 415 kts 283°
2026-04-21 05:24 48.79448 12.43780 36151 ft 415 kts 283°
2026-04-21 05:24 48.80673 12.35216 36152 ft 415 kts 283°
2026-04-21 05:25 48.81888 12.26656 36152 ft 415 kts 283°
2026-04-21 05:25 48.83112 12.18034 36155 ft 415 kts 283°
2026-04-21 05:26 48.84315 12.09478 36152 ft 415 kts 283°
2026-04-21 05:26 48.85517 12.00905 36151 ft 415 kts 283°
2026-04-21 05:27 48.86706 11.92340 36152 ft 414 kts 283°
2026-04-21 05:27 48.87893 11.83773 36154 ft 414 kts 283°
2026-04-21 05:28 48.89077 11.75207 36154 ft 414 kts 283°
2026-04-21 05:28 48.90240 11.66629 36155 ft 414 kts 283°
2026-04-21 05:29 48.91405 11.58042 36152 ft 415 kts 283°
2026-04-21 05:29 48.92572 11.49463 36150 ft 415 kts 283°
2026-04-21 05:30 48.93735 11.40865 36150 ft 415 kts 283°
2026-04-21 05:30 48.94882 11.32259 36151 ft 415 kts 282°
2026-04-21 05:31 48.96026 11.23643 36152 ft 415 kts 282°
2026-04-21 05:31 48.97170 11.14969 36154 ft 415 kts 282°
2026-04-21 05:32 48.98300 11.06339 36154 ft 416 kts 282°
2026-04-21 05:32 48.99423 10.97708 36156 ft 416 kts 282°
2026-04-21 05:33 49.00544 10.89050 36158 ft 416 kts 282°
2026-04-21 05:33 49.01668 10.80397 36159 ft 417 kts 282°
2026-04-21 05:34 49.02777 10.71728 36163 ft 417 kts 282°
2026-04-21 05:34 49.03882 10.63058 36168 ft 417 kts 282°
2026-04-21 05:35 49.04975 10.54372 36169 ft 417 kts 282°
2026-04-21 05:35 49.06062 10.45698 36169 ft 417 kts 282°
2026-04-21 05:36 49.07145 10.37011 36167 ft 417 kts 282°
2026-04-21 05:36 49.08222 10.28315 36166 ft 417 kts 282°
2026-04-21 05:37 49.09294 10.19614 36170 ft 417 kts 282°
2026-04-21 05:37 49.10359 10.10910 36171 ft 418 kts 282°
2026-04-21 05:38 49.11417 10.02191 36169 ft 418 kts 282°
2026-04-21 05:38 49.12474 9.93415 36168 ft 418 kts 282°
2026-04-21 05:39 49.13512 9.84696 36166 ft 418 kts 281°
2026-04-21 05:39 49.14552 9.75958 36167 ft 418 kts 282°
2026-04-21 05:40 49.15594 9.67226 36166 ft 418 kts 282°
2026-04-21 05:40 49.16629 9.58484 36167 ft 418 kts 281°
2026-04-21 05:41 49.17651 9.49739 36169 ft 418 kts 281°
2026-04-21 05:41 49.18666 9.40980 36170 ft 418 kts 281°
2026-04-21 05:42 49.19675 9.32226 36173 ft 418 kts 281°
2026-04-21 05:42 49.20676 9.23467 36177 ft 418 kts 281°
2026-04-21 05:43 49.21668 9.14711 36178 ft 418 kts 281°
2026-04-21 05:43 49.22650 9.05945 36181 ft 418 kts 281°
2026-04-21 05:44 49.23626 8.97184 36183 ft 418 kts 281°
2026-04-21 05:44 49.24443 8.89829 36189 ft 418 kts 281°
2026-04-21 05:45 49.25414 8.81045 36184 ft 418 kts 281°
2026-04-21 05:45 49.26379 8.72260 36188 ft 419 kts 281°
2026-04-21 05:46 49.27337 8.63471 36196 ft 419 kts 281°
2026-04-21 05:46 49.28283 8.54665 36196 ft 419 kts 281°
2026-04-21 05:47 49.29228 8.45853 36200 ft 419 kts 281°
2026-04-21 05:47 49.30170 8.37026 36199 ft 420 kts 281°
2026-04-21 05:48 49.31105 8.28195 36196 ft 420 kts 281°
2026-04-21 05:48 49.32032 8.19348 36188 ft 421 kts 281°
2026-04-21 05:49 49.32954 8.10481 36187 ft 421 kts 281°
2026-04-21 05:49 49.33863 8.01603 36185 ft 422 kts 280°
2026-04-21 05:50 49.34771 7.92714 36182 ft 422 kts 281°
2026-04-21 05:50 49.35680 7.83813 36179 ft 422 kts 280°
2026-04-21 05:51 49.36582 7.74848 36181 ft 423 kts 280°
2026-04-21 05:51 49.37474 7.65936 36181 ft 422 kts 280°
2026-04-21 05:52 49.38358 7.57029 36185 ft 423 kts 280°
2026-04-21 05:52 49.39236 7.48115 36195 ft 422 kts 280°
2026-04-21 05:53 49.40105 7.39198 36194 ft 422 kts 280°
2026-04-21 05:53 49.40967 7.30299 36195 ft 421 kts 280°
2026-04-21 05:54 49.41826 7.21408 36195 ft 421 kts 280°
2026-04-21 05:54 49.42669 7.12517 36196 ft 420 kts 280°
2026-04-21 05:55 49.43502 7.03640 36195 ft 420 kts 280°
2026-04-21 05:55 49.44330 6.94774 36189 ft 419 kts 280°
2026-04-21 05:56 49.45155 6.85921 36187 ft 418 kts 280°
2026-04-21 05:56 49.45974 6.77073 36189 ft 418 kts 280°
2026-04-21 05:57 49.46781 6.68165 36188 ft 418 kts 279°
2026-04-21 05:57 49.47574 6.59308 36192 ft 419 kts 279°
2026-04-21 05:58 49.48365 6.50436 36195 ft 419 kts 279°
2026-04-21 05:58 49.49158 6.41552 36195 ft 419 kts 279°
2026-04-21 05:59 49.49948 6.32665 36188 ft 420 kts 279°
2026-04-21 06:00 49.51110 6.19318 36194 ft 420 kts 279°
2026-04-21 06:00 49.51872 6.10390 36195 ft 421 kts 279°
2026-04-21 06:01 49.52626 6.01455 36195 ft 421 kts 279°
2026-04-21 06:01 49.53384 5.92510 36196 ft 422 kts 279°
2026-04-21 06:02 49.54137 5.83556 36196 ft 422 kts 279°
2026-04-21 06:02 49.54877 5.74594 36195 ft 422 kts 279°
2026-04-21 06:03 49.55617 5.65623 36187 ft 421 kts 279°
2026-04-21 06:03 49.56341 5.56687 36188 ft 420 kts 279°
2026-04-21 06:04 49.57057 5.47769 36188 ft 419 kts 279°
2026-04-21 06:04 49.57761 5.38872 36183 ft 418 kts 279°
2026-04-21 06:05 49.58458 5.29982 36178 ft 417 kts 279°
2026-04-21 06:05 49.59126 5.21055 36173 ft 417 kts 275°
2026-04-21 06:05 49.59209 5.16564 35531 ft 423 kts 273°
2026-04-21 06:06 49.59257 5.12028 34752 ft 423 kts 273°
2026-04-21 06:06 49.59292 5.07488 33924 ft 424 kts 273°
2026-04-21 06:06 49.59318 5.02947 33098 ft 423 kts 273°
2026-04-21 06:06 49.59339 4.98426 32270 ft 422 kts 273°
2026-04-21 06:07 49.59368 4.93913 31444 ft 421 kts 273°
2026-04-21 06:07 49.59399 4.89417 30611 ft 419 kts 273°
2026-04-21 06:07 49.59427 4.84928 29787 ft 418 kts 273°
2026-04-21 06:07 49.59454 4.80461 28965 ft 416 kts 273°
2026-04-21 06:08 49.59478 4.76005 28128 ft 415 kts 273°
2026-04-21 06:08 49.59502 4.71568 27302 ft 414 kts 273°
2026-04-21 06:08 49.59527 4.67137 26473 ft 412 kts 273°
2026-04-21 06:08 49.59552 4.62725 25700 ft 410 kts 273°
2026-04-21 06:09 49.59576 4.58355 25024 ft 406 kts 272°
2026-04-21 06:09 49.59593 4.54035 24348 ft 402 kts 272°
2026-04-21 06:09 49.59608 4.49744 23670 ft 398 kts 272°
2026-04-21 06:09 49.59618 4.45494 22994 ft 395 kts 272°
2026-04-21 06:10 49.59629 4.41278 22317 ft 392 kts 272°
2026-04-21 06:10 49.59638 4.37092 21641 ft 390 kts 272°
2026-04-21 06:10 49.59647 4.32913 20965 ft 389 kts 272°
2026-04-21 06:10 49.59655 4.28753 20284 ft 388 kts 271°
2026-04-21 06:11 49.59661 4.24606 19610 ft 387 kts 271°
2026-04-21 06:11 49.59667 4.20453 18932 ft 387 kts 271°
2026-04-21 06:11 49.59668 4.16303 18253 ft 387 kts 271°
2026-04-21 06:11 49.59668 4.12153 17576 ft 388 kts 271°
2026-04-21 06:12 49.59668 4.07993 16900 ft 388 kts 271°
2026-04-21 06:12 49.59668 4.03836 16220 ft 387 kts 271°
2026-04-21 06:12 49.59667 3.99645 15533 ft 386 kts 271°
2026-04-21 06:12 49.59662 3.95512 14856 ft 384 kts 271°
2026-04-21 06:13 49.59655 3.91412 14181 ft 382 kts 271°
2026-04-21 06:13 49.59647 3.87338 13504 ft 379 kts 271°
2026-04-21 06:13 49.59640 3.83286 12825 ft 376 kts 271°
2026-04-21 06:13 49.59636 3.79279 12147 ft 372 kts 271°
2026-04-21 06:14 49.59629 3.75307 11469 ft 369 kts 271°
2026-04-21 06:14 49.59619 3.71359 10794 ft 367 kts 271°
2026-04-21 06:14 49.59607 3.67435 10113 ft 366 kts 271°
2026-04-21 06:14 49.59592 3.63521 9436 ft 364 kts 271°
2026-04-21 06:15 49.59574 3.59630 8864 ft 360 kts 271°
2026-04-21 06:15 49.59540 3.55859 8730 ft 344 kts 267°
2026-04-21 06:15 49.59123 3.52320 8604 ft 330 kts 257°
2026-04-21 06:15 49.58604 3.48936 8474 ft 318 kts 257°
2026-04-21 06:16 49.58103 3.45684 8350 ft 306 kts 257°
2026-04-21 06:16 49.57616 3.42545 8224 ft 296 kts 257°
2026-04-21 06:16 49.57140 3.39498 8099 ft 291 kts 257°
2026-04-21 06:16 49.56669 3.36468 7983 ft 290 kts 257°
2026-04-21 06:17 49.56200 3.33448 7848 ft 290 kts 257°
2026-04-21 06:17 49.55886 3.31415 7763 ft 289 kts 257°
2026-04-21 06:17 49.55572 3.28367 7641 ft 287 kts 271°
2026-04-21 06:17 49.55566 3.25301 7504 ft 286 kts 271°
2026-04-21 06:18 49.55560 3.22237 7389 ft 286 kts 271°
2026-04-21 06:18 49.55555 3.19178 7264 ft 285 kts 271°
2026-04-21 06:18 49.55551 3.16130 7213 ft 285 kts 271°
2026-04-21 06:18 49.55547 3.13082 7219 ft 285 kts 271°
2026-04-21 06:19 49.55542 3.10028 7220 ft 285 kts 271°
2026-04-21 06:19 49.55535 3.06964 7220 ft 286 kts 271°
2026-04-21 06:19 49.55528 3.03911 7219 ft 285 kts 271°
2026-04-21 06:19 49.55521 3.00849 7226 ft 285 kts 271°
2026-04-21 06:20 49.55513 2.97796 7226 ft 285 kts 271°
2026-04-21 06:20 49.55505 2.94753 7229 ft 285 kts 271°
2026-04-21 06:20 49.55495 2.91704 7229 ft 284 kts 271°
2026-04-21 06:20 49.55486 2.88660 7230 ft 284 kts 271°
2026-04-21 06:21 49.55474 2.85624 7228 ft 284 kts 271°
2026-04-21 06:21 49.55461 2.82578 7232 ft 284 kts 271°
2026-04-21 06:21 49.55447 2.79540 7231 ft 284 kts 271°
2026-04-21 06:21 49.55432 2.76493 7228 ft 284 kts 271°
2026-04-21 06:22 49.55416 2.73448 7229 ft 284 kts 271°
2026-04-21 06:22 49.55399 2.70369 7227 ft 284 kts 271°
2026-04-21 06:22 49.55383 2.67323 7230 ft 284 kts 271°
2026-04-21 06:22 49.55363 2.64281 7229 ft 284 kts 271°
2026-04-21 06:23 49.55340 2.61237 7231 ft 284 kts 271°
2026-04-21 06:23 49.55319 2.58194 7229 ft 284 kts 271°
2026-04-21 06:23 49.55302 2.55163 7231 ft 283 kts 271°
2026-04-21 06:23 49.55208 2.52129 7225 ft 284 kts 261°
2026-04-21 06:24 49.54614 2.49228 7227 ft 285 kts 244°
2026-04-21 06:24 49.53495 2.46720 7221 ft 286 kts 226°
2026-04-21 06:24 49.52011 2.44696 7221 ft 286 kts 219°
2026-04-21 06:24 49.50489 2.42720 7218 ft 286 kts 220°
2026-04-21 06:25 49.48976 2.40744 7220 ft 286 kts 220°
2026-04-21 06:25 49.47468 2.38764 7216 ft 280 kts 220°
2026-04-21 06:25 49.45982 2.36817 6704 ft 286 kts 220°
2026-04-21 06:25 49.44435 2.34799 6051 ft 297 kts 220°
2026-04-21 06:26 49.42837 2.32717 5396 ft 306 kts 220°
2026-04-21 06:26 49.41190 2.30573 4742 ft 313 kts 220°
2026-04-21 06:26 49.39650 2.28185 4079 ft 319 kts 237°
2026-04-21 06:26 49.38948 2.24991 3431 ft 320 kts 268°
2026-04-21 06:27 49.39357 2.21696 2766 ft 310 kts 299°
2026-04-21 06:27 49.40547 2.19084 2322 ft 287 kts 316°
2026-04-21 06:27 49.42114 2.17652 2060 ft 246 kts 355°
2026-04-21 06:27 49.43631 2.18130 2043 ft 210 kts 36°
2026-04-21 06:28 49.44455 2.19817 1965 ft 193 kts 73°
2026-04-21 06:28 49.44381 2.21801 1882 ft 190 kts 112°
2026-04-21 06:28 49.43599 2.23413 1918 ft 191 kts 140°
2026-04-21 06:28 49.42363 2.24031 1878 ft 191 kts 187°
2026-04-21 06:29 49.41276 2.23095 1683 ft 180 kts 234°
2026-04-21 06:29 49.41075 2.21426 1485 ft 152 kts 292°
2026-04-21 06:29 49.41673 2.20190 1370 ft 141 kts 310°
2026-04-21 06:29 49.42174 2.18924 1199 ft 137 kts 303°
2026-04-21 06:30 49.42681 2.17694 1025 ft 136 kts 304°
2026-04-21 06:30 49.43195 2.16483 842 ft 135 kts 305°
2026-04-21 06:30 49.43710 2.15283 671 ft 134 kts 305°
2026-04-21 06:30 49.44228 2.14086 491 ft 134 kts 305°
2026-04-21 06:31 49.44738 2.12890 319 ft 131 kts 306°
2026-04-21 06:31 49.45147 2.11959 332 ft 93 kts 304°
2026-04-21 06:31 49.45409 2.11362 339 ft 35 kts 304°
2026-04-21 06:31 49.45486 2.11327 342 ft 13 kts 49°
2026-04-21 06:32 49.45566 2.11468 355 ft 21 kts 45°
2026-04-21 06:32 49.45675 2.11598 352 ft 16 kts 38°
2026-04-21 06:32 49.45739 2.11600 355 ft 11 kts 318°
2026-04-21 06:32 49.45790 2.11508 347 ft 9 kts 305°
2026-04-21 06:33 49.45821 2.11430 347 ft 10 kts 306°
2026-04-21 06:33 49.45850 2.11382 347 ft 3 kts 313°
2026-04-21 06:33 49.45854 2.11375 347 ft 0 kts 313°